User: anonymous   Login
Location: Unspecified
(0.0000°N, 0.0000°E)
Time: 18:08:53
(UTC+00:00)
Language:

Landsat 2 - Orbit

View from above orbital plane
View from above orbital plane
View from above satellite
View from above satellite

Ground track
Ground track

The orbit data is extracted from the following two-line orbital elements,

1 07615U 75004A   18115.07750915  .00000188  00000-0  16565-3 0  9998
2 07615  98.7714 140.1365 0007629 239.6748 120.3661 13.96661195204080
Epoch (UTC): 25 April 2018 01:51:36
Eccentricity: 0.0007629
inclination: 98.7714°
perigee height: 900 km
apogee height: 911 km
right ascension of ascending node: 140.1365°
argument of perigee: 239.6748°
revolutions per day: 13.96661195
mean anomaly at epoch: 120.3661°
orbit number at epoch: 20408

The dashed part of the orbit path shows where the satellite is in the earth's shadow,  

DLR